Weather History for South Haven, MI

Change the Weather History Date:

Wednesday, January 29, 2014

  Actual Average (KBIV) Record (KBIV)
Temperature  
Mean Temperature 14 °F 26 °F  
Max Temperature 19 °F 32 °F 61 °F (2013)
Min Temperature 10 °F 20 °F -6 °F (1966)
Degree Days  
Heating Degree Days 50 39  
Month to date heating degree days 1122  
Since 1 July heating degree days 3390  
Cooling Degree Days 0 0  
Month to date cooling degree days 0  
Year to date cooling degree days 0  
Moisture  
Dew Point 3 °F    
Average Humidity 60    
Maximum Humidity 69    
Minimum Humidity 48    
Precipitation  
Precipitation 0.00 in 0.06 in 1.11 in (2013)
Month to date precipitation 1.96  
Year to date precipitation 1.96  
Sea Level Pressure  
Sea Level Pressure 30.12 in    
Wind  
Wind Speed 15 mph (WSW)    
Max Wind Speed 18 mph    
Max Gust Speed 28 mph    
Visibility 8 miles    
Events      
T = Trace of Precipitation, MM = Missing Value Source: NWS Daily Summary

Daily Weather History Graph

Daily Weather History Graph

Search for Another Location

Airport:

Trip Planner

Search our weather history database for the weather conditions in past years. The results will help you decide how hot, cold, wet, or windy it might be!

Date:

Astronomy

Jan. 29, 2014 Rise Set
Actual Time 8:01 AM EST 5:55 PM EST
Civil Twilight 7:31 AM EST 6:25 PM EST
Nautical Twilight 6:57 AM EST 6:59 PM EST
Astronomical Twilight 6:24 AM EST 7:32 PM EST
Moon 6:37 AM EST (1/29) 4:54 PM EST (1/29)
Length of Visible Light 10h 53m
Length of Day
9h 53m
Waning Crescent, 2% of the Moon is Illuminated
Jan 29
Waning Crescent
Jan 30
New
Feb 6
First Quarter
Feb 14
Full
Feb 22
Last Quarter

Hourly Weather History & Observations

Time (EST) Temp. Windchill Dew Point Humidity Pressure Visibility Wind Dir Wind Speed Gust Speed Precip Events Conditions
12:15 AM 10.2 °F -7.9 °F 1.8 °F 69% 30.16 in 5.0 mi West 18.4 mph 24.2 mph N/A   Haze
12:35 AM 10.4 °F -7.7 °F 1.6 °F 68% 30.15 in 4.0 mi West 18.4 mph 24.2 mph N/A   Haze
12:55 AM 10.4 °F -5.4 °F 1.8 °F 68% 30.16 in 3.0 mi West 13.8 mph 25.3 mph N/A   Haze
1:15 AM 10.4 °F -6.6 °F 1.6 °F 68% 30.15 in 4.0 mi West 16.1 mph 25.3 mph N/A   Haze
1:35 AM 10.4 °F -6.0 °F 2.1 °F 69% 30.15 in 3.0 mi West 15.0 mph 24.2 mph N/A   Haze
1:55 AM 10.6 °F -6.9 °F 1.8 °F 68% 30.14 in 5.0 mi West 17.3 mph 25.3 mph N/A   Haze
2:15 AM 10.4 °F -7.7 °F 1.0 °F 66% 30.13 in 3.0 mi West 18.4 mph 25.3 mph N/A   Haze
2:35 AM 10.9 °F -4.7 °F 2.3 °F 68% 30.13 in 7.0 mi West 13.8 mph 23.0 mph N/A   Overcast
2:55 AM 11.1 °F -5.7 °F 1.2 °F 64% 30.13 in 5.0 mi West 16.1 mph 24.2 mph N/A   Haze
3:15 AM 10.9 °F -5.9 °F 0.5 °F 63% 30.13 in 5.0 mi West 16.1 mph 21.9 mph N/A   Haze
3:35 AM 10.9 °F -5.9 °F 0.5 °F 63% 30.13 in 10.0 mi West 16.1 mph 21.9 mph N/A   Mostly Cloudy
3:55 AM 11.1 °F -5.7 °F 0.7 °F 63% 30.13 in 7.0 mi West 16.1 mph 21.9 mph N/A   Mostly Cloudy
4:15 AM 10.9 °F -5.9 °F 1.2 °F 65% 30.12 in 7.0 mi West 16.1 mph 25.3 mph N/A   Mostly Cloudy
4:35 AM 10.6 °F -5.2 °F 2.1 °F 69% 30.12 in 7.0 mi West 13.8 mph 23.0 mph N/A   Mostly Cloudy
4:55 AM 10.8 °F -5.0 °F 2.5 °F 69% 30.12 in 5.0 mi WSW 13.8 mph 27.6 mph N/A   Haze
5:15 AM 10.8 °F -5.6 °F 2.1 °F 68% 30.12 in 10.0 mi West 15.0 mph 20.7 mph N/A   Overcast
5:35 AM 10.9 °F -4.7 °F 2.3 °F 68% 30.12 in 7.0 mi West 13.8 mph 21.9 mph N/A   Mostly Cloudy
5:55 AM 10.9 °F -4.1 °F 2.7 °F 69% 30.12 in 10.0 mi West 12.7 mph 20.7 mph N/A   Mostly Cloudy
6:15 AM 10.6 °F -6.4 °F 1.9 °F 68% 30.12 in 7.0 mi West 16.1 mph 24.2 mph N/A   Mostly Cloudy
6:35 AM 10.6 °F -5.8 °F 1.9 °F 68% 30.11 in 7.0 mi West 15.0 mph 26.5 mph N/A   Scattered Clouds
6:55 AM 10.8 °F -6.2 °F 1.8 °F 67% 30.11 in 5.0 mi West 16.1 mph 26.5 mph N/A   Haze
7:15 AM 10.9 °F -5.9 °F 1.4 °F 65% 30.11 in 10.0 mi West 16.1 mph 23.0 mph N/A   Scattered Clouds
7:35 AM 11.1 °F -6.7 °F 1.8 °F 66% 30.11 in 5.0 mi West 18.4 mph 27.6 mph N/A   Haze
7:55 AM 11.3 °F -6.0 °F 2.1 °F 67% 30.12 in 7.0 mi West 17.3 mph 24.2 mph N/A   Scattered Clouds
8:15 AM 11.3 °F -5.5 °F 1.8 °F 66% 30.12 in 7.0 mi West 16.1 mph 21.9 mph N/A   Scattered Clouds
8:35 AM 12.0 °F -5.1 °F 1.8 °F 64% 30.12 in 5.0 mi West 17.3 mph 25.3 mph N/A   Haze
8:55 AM 12.7 °F -3.0 °F 3.2 °F 66% 30.13 in 10.0 mi West 15.0 mph 23.0 mph N/A   Scattered Clouds
9:15 AM 13.1 °F -3.7 °F 2.8 °F 64% 30.13 in 10.0 mi West 17.3 mph 24.2 mph N/A   Scattered Clouds
9:35 AM 13.8 °F -2.2 °F 3.7 °F 64% 30.14 in 5.0 mi West 16.1 mph 24.2 mph N/A   Haze
9:55 AM 14.0 °F -2.5 °F 3.7 °F 64% 30.14 in 10.0 mi West 17.3 mph 21.9 mph N/A   Scattered Clouds
10:15 AM 14.4 °F -0.4 °F 4.1 °F 64% 30.15 in 10.0 mi West 13.8 mph 21.9 mph N/A   Mostly Cloudy
10:35 AM 14.5 °F -0.2 °F 4.5 °F 64% 30.15 in 10.0 mi West 13.8 mph 24.2 mph N/A   Mostly Cloudy
10:55 AM 15.8 °F 0.9 °F 5.2 °F 63% 30.15 in 10.0 mi West 15.0 mph 19.6 mph N/A   Mostly Cloudy
11:15 AM 15.6 °F -0.4 °F 5.2 °F 63% 30.16 in 10.0 mi West 17.3 mph 25.3 mph N/A   Scattered Clouds
11:35 AM 16.3 °F 0.1 °F 5.4 °F 62% 30.15 in 7.0 mi West 18.4 mph 25.3 mph N/A   Scattered Clouds
11:55 AM 17.2 °F 1.2 °F 5.7 °F 61% 30.15 in 7.0 mi West 18.4 mph 24.2 mph N/A   Scattered Clouds
12:15 PM 17.2 °F 1.2 °F 5.5 °F 60% 30.15 in 7.0 mi West 18.4 mph 26.5 mph N/A   Scattered Clouds
12:35 PM 17.6 °F 1.7 °F 5.5 °F 59% 30.15 in 7.0 mi WSW 18.4 mph 26.5 mph N/A   Scattered Clouds
12:55 PM 18.1 °F 4.4 °F 5.0 °F 57% 30.14 in 7.0 mi West 13.8 mph 27.6 mph N/A   Scattered Clouds
1:15 PM 18.5 °F 3.8 °F 5.5 °F 57% 30.14 in 10.0 mi West 16.1 mph 24.2 mph N/A   Scattered Clouds
1:35 PM 18.7 °F 5.1 °F 5.2 °F 56% 30.13 in 10.0 mi West 13.8 mph 24.2 mph N/A   Scattered Clouds
1:55 PM 19.0 °F 6.1 °F 5.9 °F 57% 30.12 in 10.0 mi West 12.7 mph 24.2 mph N/A   Scattered Clouds
2:15 PM 19.2 °F 4.3 °F 5.5 °F 55% 30.12 in 10.0 mi WSW 17.3 mph 25.3 mph N/A   Scattered Clouds
2:35 PM 19.4 °F 5.0 °F 5.0 °F 54% 30.13 in 7.0 mi WSW 16.1 mph 24.2 mph N/A   Clear
2:55 PM 19.4 °F 4.5 °F 4.8 °F 53% 30.12 in 10.0 mi WSW 17.3 mph 25.3 mph N/A   Clear
3:15 PM 19.4 °F 6.6 °F 5.2 °F 54% 30.12 in 10.0 mi WSW 12.7 mph 21.9 mph N/A   Clear
3:35 PM 19.4 °F 6.0 °F 5.9 °F 56% 30.13 in 10.0 mi WSW 13.8 mph 21.9 mph N/A   Clear
3:55 PM 18.9 °F 6.5 °F 5.5 °F 56% 30.13 in 10.0 mi WSW 11.5 mph 19.6 mph N/A   Clear
4:15 PM 18.5 °F 4.3 °F 5.4 °F 57% 30.13 in 10.0 mi SW 15.0 mph 20.7 mph N/A   Clear
4:35 PM 18.7 °F 5.1 °F 4.5 °F 54% 30.12 in 10.0 mi SW 13.8 mph 20.7 mph N/A   Clear
4:55 PM 18.5 °F 7.5 °F 4.1 °F 54% 30.12 in 10.0 mi SW 9.2 mph - N/A   Clear
5:15 PM 18.5 °F 6.1 °F 2.7 °F 50% 30.13 in 10.0 mi SW 11.5 mph - N/A   Clear
5:35 PM 18.3 °F 4.6 °F 1.9 °F 49% 30.13 in 10.0 mi SW 13.8 mph 20.7 mph N/A   Clear
5:55 PM 18.0 °F 7.7 °F 1.0 °F 48% 30.13 in 10.0 mi SSW 8.1 mph 18.4 mph N/A   Clear
6:15 PM 17.2 °F 6.8 °F 0.5 °F 48% 30.12 in 10.0 mi SSW 8.1 mph - N/A   Clear
6:35 PM 16.5 °F 6.9 °F 0.5 °F 49% 30.12 in 10.0 mi SSW 6.9 mph - N/A   Clear
6:55 PM 16.0 °F 5.3 °F 0.1 °F 50% 30.12 in 10.0 mi South 8.1 mph - N/A   Clear
7:15 PM 15.8 °F 7.2 °F -0.0 °F 50% 30.12 in 10.0 mi SSW 5.8 mph - N/A   Clear
7:35 PM 15.4 °F 6.8 °F 0.5 °F 52% 30.11 in 10.0 mi South 5.8 mph - N/A   Clear
7:55 PM 15.4 °F 5.6 °F 0.9 °F 53% 30.11 in 10.0 mi South 6.9 mph - N/A   Clear
8:15 PM 15.3 °F 5.4 °F 1.6 °F 55% 30.10 in 10.0 mi South 6.9 mph - N/A   Clear
8:35 PM 14.9 °F 5.0 °F 2.1 °F 57% 30.10 in 10.0 mi South 6.9 mph - N/A   Clear
8:55 PM 14.0 °F 5.1 °F 2.3 °F 60% 30.10 in 10.0 mi South 5.8 mph - N/A   Clear
9:15 PM 14.4 °F 5.5 °F 2.8 °F 60% 30.09 in 10.0 mi South 5.8 mph - N/A   Clear
9:35 PM 14.2 °F 3.1 °F 3.4 °F 62% 30.08 in 10.0 mi South 8.1 mph - N/A   Clear
9:55 PM 15.8 °F 5.1 °F 3.9 °F 60% 30.08 in 10.0 mi South 8.1 mph - N/A   Clear
10:15 PM 16.7 °F 4.5 °F 4.5 °F 59% 30.07 in 10.0 mi South 10.4 mph 18.4 mph N/A   Clear
10:35 PM 16.7 °F 5.3 °F 4.5 °F 59% 30.07 in 10.0 mi South 9.2 mph - N/A   Clear
10:55 PM 17.2 °F 5.2 °F 4.6 °F 58% 30.06 in 10.0 mi South 10.4 mph 17.3 mph N/A   Clear
11:15 PM 18.0 °F 5.4 °F 4.8 °F 57% 30.05 in 10.0 mi South 11.5 mph 18.4 mph N/A   Clear
11:35 PM 19.0 °F 6.8 °F 4.8 °F 54% 30.04 in 10.0 mi SSW 11.5 mph 17.3 mph N/A   Clear
11:55 PM 19.2 °F 6.4 °F 4.5 °F 53% 30.05 in 10.0 mi SSW 12.7 mph 18.4 mph N/A   Clear